Weather History for Oklahoma City Wiley Post, OK

Change the Weather History Date:

Tuesday, December 3, 2013

  Actual Average Record
Temperature  
Mean Temperature 52 °F -  
Max Temperature 64 °F 55 °F 78 °F (2012)
Min Temperature 41 °F 30 °F 21 °F (2006)
Degree Days  
Heating Degree Days 12    
Growing Degree Days 2 (Base 50)    
Moisture  
Dew Point 41 °F    
Average Humidity 73    
Maximum Humidity 89    
Minimum Humidity 43    
Precipitation  
Precipitation 0.00 in - - ()
Sea Level Pressure  
Sea Level Pressure 29.54 in    
Wind  
Wind Speed 9 mph (South)    
Max Wind Speed 16 mph    
Max Gust Speed -    
Visibility 6 miles    
Events      
Averages and records for this station are not official NWS values.
T = Trace of Precipitation, MM = Missing Value Source: NWS Daily Summary

Daily Weather History Graph

Daily Weather History Graph

Search for Another Location

Airport:

Trip Planner

Search our weather history database for the weather conditions in past years. The results will help you decide how hot, cold, wet, or windy it might be!

Date:

Astronomy

Dec. 03, 2013 Rise Set
Actual Time 7:23 AM CST 5:17 PM CST
Civil Twilight 6:55 AM CST 5:45 PM CST
Nautical Twilight 6:23 AM CST 6:17 PM CST
Astronomical Twilight 5:53 AM CST 6:47 PM CST
Moon 7:55 AM CST (12/3) 6:21 PM CST (12/3)
Length of Visible Light 10h 49m
Length of Day
9h 53m
New Moon, 1% of the Moon is Illuminated
Dec 3
New Moon
Dec 9
First Quarter
Dec 17
Full
Dec 25
Last Quarter
Jan 1
New

Hourly Weather History & Observations

Time (CST) Temp. Windchill Dew Point Humidity Pressure Visibility Wind Dir Wind Speed Gust Speed Precip Events Conditions
12:53 AM 44.1 °F 40.1 °F 39.9 °F 85% 29.61 in 5.0 mi SSW 6.9 mph - N/A   Clear
1:53 AM 46.0 °F 41.4 °F 42.1 °F 86% 29.59 in 4.0 mi South 9.2 mph - N/A   Clear
2:48 AM 46.4 °F 41.1 °F 42.8 °F 87% 29.58 in 2.5 mi South 11.5 mph - N/A   Clear
2:53 AM 46.0 °F 41.4 °F 43.0 °F 89% 29.57 in 2.5 mi South 9.2 mph - N/A   Clear
3:31 AM 46.4 °F 41.9 °F 42.8 °F 87% 29.57 in 3.0 mi South 9.2 mph - N/A   Clear
3:53 AM 44.1 °F 41.5 °F 39.9 °F 85% 29.57 in 3.0 mi South 4.6 mph - N/A   Clear
4:49 AM 42.8 °F 37.0 °F 39.2 °F 87% 29.56 in 2.5 mi South 10.4 mph - N/A   Clear
4:53 AM 43.0 °F 37.7 °F 39.0 °F 86% 29.55 in 2.5 mi South 9.2 mph - N/A   Clear
5:01 AM 42.8 °F 37.0 °F 39.2 °F 87% 29.56 in 3.0 mi South 10.4 mph - N/A   Clear
5:20 AM 42.8 °F 38.6 °F 39.2 °F 87% 29.56 in 2.5 mi South 6.9 mph - N/A   Clear
5:53 AM 43.0 °F 37.2 °F 39.9 °F 89% 29.56 in 2.0 mi South 10.4 mph - N/A   Clear
6:34 AM 42.8 °F 36.6 °F 39.2 °F 87% 29.54 in 3.0 mi South 11.5 mph - N/A   Clear
6:53 AM 44.1 °F 38.6 °F 39.9 °F 85% 29.55 in 4.0 mi SSE 10.4 mph - N/A   Clear
7:32 AM 41.0 °F 36.4 °F 37.4 °F 87% 29.57 in 2.0 mi South 6.9 mph - N/A   Clear
7:53 AM 42.1 °F 39.2 °F 39.0 °F 89% 29.56 in 2.0 mi SSE 4.6 mph - N/A   Clear
7:56 AM 42.8 °F 40.1 °F 39.2 °F 87% 29.56 in 4.0 mi SSE 4.6 mph - N/A   Clear
8:53 AM 46.9 °F - 42.1 °F 83% 29.56 in 3.0 mi SE 9.2 mph - N/A   Haze
9:53 AM 50.0 °F - 44.1 °F 80% 29.57 in 5.0 mi SSE 10.4 mph - N/A   Haze
10:53 AM 54.0 °F - 44.1 °F 69% 29.59 in 7.0 mi South 11.5 mph - N/A   Clear
11:53 AM 59.0 °F - 44.1 °F 58% 29.54 in 7.0 mi South 13.8 mph - N/A   Clear
12:53 PM 61.0 °F - 42.1 °F 50% 29.51 in 8.0 mi SSE 11.5 mph - N/A   Clear
1:53 PM 63.0 °F - 42.1 °F 46% 29.47 in 9.0 mi South 16.1 mph - N/A   Clear
2:53 PM 64.0 °F - 41.0 °F 43% 29.47 in 9.0 mi South 11.5 mph - N/A   Clear
3:53 PM 63.0 °F - 42.1 °F 46% 29.49 in 9.0 mi South 6.9 mph - N/A   Clear
4:53 PM 59.0 °F - 42.1 °F 53% 29.51 in 9.0 mi South 5.8 mph - N/A   Clear
5:53 PM 57.0 °F - 42.1 °F 57% 29.52 in 10.0 mi SSE 6.9 mph - N/A   Clear
6:53 PM 55.0 °F - 39.9 °F 57% 29.52 in 10.0 mi SSE 9.2 mph - N/A   Clear
7:53 PM 54.0 °F - 39.0 °F 57% 29.53 in 10.0 mi SSE 8.1 mph - N/A   Clear
8:53 PM 52.0 °F - 37.0 °F 57% 29.52 in 10.0 mi SSE 10.4 mph - N/A   Clear
9:53 PM 54.0 °F - 37.0 °F 53% 29.52 in 10.0 mi SSE 16.1 mph - N/A   Clear
10:53 PM 52.0 °F - 39.9 °F 63% 29.51 in 10.0 mi SSE 12.7 mph - N/A   Clear
11:53 PM 50.0 °F - 41.0 °F 71% 29.49 in 8.0 mi South 13.8 mph - N/A   Clear